WetterOnline ( https://www.wetteronline.at )

Wetter aktuell Lutherstadt Wittenberg

Aktuelles Wetter: Wittenberg (106m)

6-stündlich | Neueste Meldungen
Ortszeit Temperatur Wetter
Mo, 06.02. 1:00 -5.8° C wolkenlos
So, 05.02. 19:00 -1.7° C fast wolkenlos
So, 05.02. 13:00 -0.6° C bedeckt
So, 05.02. 7:00 -4.6° C bedeckt
So, 05.02. 1:00 -2.9° C wolkenlos
Sa, 04.02. 19:00 -0.9° C wolkenlos
Sa, 04.02. 13:00 3.5° C bewölkt
Sa, 04.02. 7:00 0.2° C wolkenlos
Ortszeit Temperatur Wetter
Mo, 06.02. 4:30 -5.7° C bewölkt
Mo, 06.02. 4:20 -5.7° C bewölkt
Mo, 06.02. 4:10 -5.8° C bedeckt
Mo, 06.02. 4:00 -6.2° C bedeckt
Mo, 06.02. 3:50 -6.2° C bedeckt
Mo, 06.02. 3:40 -6.4° C bedeckt
Mo, 06.02. 3:30 -6.4° C bedeckt
Mo, 06.02. 3:00 -6.8° C bedeckt
Mo, 06.02. 2:30 -6.4° C bedeckt
Mo, 06.02. 2:00 -6.4° C leicht bewölkt
Mo, 06.02. 1:30 -6.2° C fast wolkenlos
Ortszeit Relative Feuchte Sichtweite
Mo, 06.02. 1:00 86% 45 km
So, 05.02. 19:00 72% 45 km
So, 05.02. 13:00 70% 50 km
So, 05.02. 7:00 84% 65 km
So, 05.02. 1:00 78% 50 km
Sa, 04.02. 19:00 78% 35 km
Sa, 04.02. 13:00 63% 60 km
Sa, 04.02. 7:00 86% >70 km
Ortszeit Relative Feuchte Sichtweite
Mo, 06.02. 4:30 88% 40 km
Mo, 06.02. 4:20 88% -
Mo, 06.02. 4:10 88% -
Mo, 06.02. 4:00 89% 45 km
Mo, 06.02. 3:50 89% -
Mo, 06.02. 3:40 88% -
Mo, 06.02. 3:30 88% 55 km
Mo, 06.02. 3:00 88% 50 km
Mo, 06.02. 2:30 87% 35 km
Mo, 06.02. 2:00 88% 50 km
Mo, 06.02. 1:30 87% 40 km
Ortszeit Niederschlagsmenge Niederschlagsart
Mo, 06.02. 1:00 0.0 l/m2 in 6 Std. -
So, 05.02. 19:00 0.0 l/m2 in 12 Std. -
So, 05.02. 13:00 0.0 l/m2 in 6 Std. -
So, 05.02. 7:00 0.0 l/m2 in 12 Std. -
So, 05.02. 1:00 0.0 l/m2 in 6 Std. -
Sa, 04.02. 19:00 0.0 l/m2 in 12 Std. -
Sa, 04.02. 13:00 0.0 l/m2 in 6 Std. -
Sa, 04.02. 7:00 1 l/m2 in 12 Std. Regen
Ortszeit Niederschlagsmenge Niederschlagsart
Mo, 06.02. 4:30 0.0 l/m2 in 30 Min -
Mo, 06.02. 4:20 keine Meldung -
Mo, 06.02. 4:10 keine Meldung -
Mo, 06.02. 4:00 0.0 l/m2 in 1 Std. -
Mo, 06.02. 3:50 keine Meldung -
Mo, 06.02. 3:40 keine Meldung -
Mo, 06.02. 3:30 0.0 l/m2 in 30 Min -
Mo, 06.02. 3:00 0.0 l/m2 in 1 Std. -
Mo, 06.02. 2:30 0.0 l/m2 in 30 Min -
Mo, 06.02. 2:00 0.0 l/m2 in 1 Std. -
Mo, 06.02. 1:30 0.0 l/m2 in 30 Min -
Ortszeit Stärke Spitze Richtung
km/h Bft. km/h Grad Sektor
Mo, 06.02. 1:00 4 1 11 130° SO
So, 05.02. 19:00 7 2 25 120° SO
So, 05.02. 13:00 13 3 22 120° SO
So, 05.02. 7:00 4 1 11 100° O
So, 05.02. 1:00 6 1 11 90° O
Sa, 04.02. 19:00 7 2 22 360° N
Sa, 04.02. 13:00 11 2 29 10° N
Sa, 04.02. 7:00 13 3 50 340° N
Ortszeit Stärke Spitze Richtung
km/h Bft. km/h Grad Sektor
Mo, 06.02. 4:30 4 1 7 300° NW
Mo, 06.02. 4:20 4 1 - 300° NW
Mo, 06.02. 4:10 4 1 - 280° W
Mo, 06.02. 4:00 4 1 4 300° NW
Mo, 06.02. 3:50 4 1 - 300° NW
Mo, 06.02. 3:40 4 1 - 310° NW
Mo, 06.02. 3:30 0 0 4 - -
Mo, 06.02. 3:00 4 1 4 340° N
Mo, 06.02. 2:30 0 0 4 - -
Mo, 06.02. 2:00 4 1 7 350° N
Mo, 06.02. 1:30 2 1 6 140° SO
Ortszeit Untergrenze Bedeckung Gattung
total tief tief mittel hoch
Mo, 06.02. 1:00 - 0/8 0/8 - - -
So, 05.02. 19:00 3600 m 1/8 1/8 - - -
So, 05.02. 13:00 3900 m 8/8 8/8 - - -
So, 05.02. 7:00 4200 m 8/8 8/8 - - -
So, 05.02. 1:00 - 0/8 0/8 - - -
Sa, 04.02. 19:00 - 0/8 0/8 - - -
Sa, 04.02. 13:00 870 m 7/8 7/8 - - -
Sa, 04.02. 7:00 - 0/8 0/8 - - -
Ortszeit Bedeckungsgrad in Achtel und Wolkenuntergrenze
Mo, 06.02. 4:30 7(1800m) 8(6900m)
Mo, 06.02. 4:20 7(1800m) 8(6900m)
Mo, 06.02. 4:10 8
Mo, 06.02. 4:00 8(6900m)
Mo, 06.02. 3:50 8(6900m)
Mo, 06.02. 3:40 8
Mo, 06.02. 3:30 8(6900m)
Mo, 06.02. 3:00 8(6900m)
Mo, 06.02. 2:30 8(6900m) 8(8400m)
Mo, 06.02. 2:00 4(7200m) 5(8700m)
Mo, 06.02. 1:30 1(10500m)
Ortszeit Luftdruck NN (hPa) Tendenz (hPa in 3 Std.)
Mo, 06.02. 1:00 1040 + 0,5
So, 05.02. 19:00 1038 + 1,0
So, 05.02. 13:00 1037 - 0,9
So, 05.02. 7:00 1039 0,0
So, 05.02. 1:00 1041 + 0,3
Sa, 04.02. 19:00 1039 + 0,8
Sa, 04.02. 13:00 1037 + 1,4
Sa, 04.02. 7:00 1033 + 4,6
Ortszeit Luftdruck NN (hPa) Tendenz (hPa in 3 Std.)
Mo, 06.02. 4:30 1040 - 0,7
Mo, 06.02. 4:20 1040 keine Meldung
Mo, 06.02. 4:10 1040 keine Meldung
Mo, 06.02. 4:00 1040 - 0,5
Mo, 06.02. 3:50 1040 keine Meldung
Mo, 06.02. 3:40 1040 keine Meldung
Mo, 06.02. 3:30 1040 - 0,7
Mo, 06.02. 3:00 1041 - 0,2
Mo, 06.02. 2:30 1041 - 0,1
Mo, 06.02. 2:00 1041 + 0,2
Mo, 06.02. 1:30 1040 0,0
Ortszeit Schneehöhe (cm)
Mo, 06.02. 1:00 0
So, 05.02. 19:00 0
So, 05.02. 13:00 0
So, 05.02. 7:00 0
So, 05.02. 1:00 0
Sa, 04.02. 19:00 0
Sa, 04.02. 13:00 0
Sa, 04.02. 7:00 0
Ortszeit Schneehöhe (cm)
Mo, 06.02. 4:30 0
Mo, 06.02. 4:20 0
Mo, 06.02. 4:10 0
Mo, 06.02. 4:00 0
Mo, 06.02. 3:50 0
Mo, 06.02. 3:40 0
Mo, 06.02. 3:30 0
Mo, 06.02. 3:00 0
Mo, 06.02. 2:30 0
Mo, 06.02. 2:00 0
Mo, 06.02. 1:30 0
Link zu dieser Seite / Seite empfehlen

Das Wetter in ...